MDT7 ESGG-ENHD

Flight info

Callsign MDT7
Flight time N/A
Altitude 36000
Route DETNA DCT RIVEX
Aircraft A319/M-SDE3FGHIRWY/LB1

Departure

Time 2026-05-06 18:47
Airport Göteborg Landvetter Airport (ESGG)

Arrival

Time N/A
Airport Haugesund Airport, Karmøy (ENHD)
Time Latitude Longitude Altitude Speed Heading
2026-05-06 18:25 57.67005 12.29535 516 ft 0 kts 116°
2026-05-06 18:36 57.67008 12.29521 516 ft 4 kts 116°
2026-05-06 18:36 57.67020 12.29476 516 ft 4 kts 116°
2026-05-06 18:36 57.67029 12.29440 516 ft 4 kts 105°
2026-05-06 18:37 57.67030 12.29401 516 ft 4 kts 39°
2026-05-06 18:37 57.67010 12.29381 516 ft 1 kts 26°
2026-05-06 18:37 57.67010 12.29380 516 ft 0 kts 26°
2026-05-06 18:40 57.67014 12.29384 516 ft 2 kts 26°
2026-05-06 18:40 57.67035 12.29403 516 ft 5 kts 26°
2026-05-06 18:41 57.67071 12.29436 516 ft 7 kts 26°
2026-05-06 18:41 57.67124 12.29484 516 ft 10 kts 26°
2026-05-06 18:41 57.67190 12.29544 516 ft 9 kts 20°
2026-05-06 18:41 57.67217 12.29468 516 ft 8 kts 293°
2026-05-06 18:42 57.67259 12.29387 516 ft 10 kts 354°
2026-05-06 18:42 57.67324 12.29439 516 ft 9 kts 26°
2026-05-06 18:42 57.67379 12.29489 516 ft 9 kts 15°
2026-05-06 18:42 57.67426 12.29420 516 ft 10 kts 298°
2026-05-06 18:43 57.67452 12.29330 516 ft 4 kts 299°
2026-05-06 18:43 57.67461 12.29287 515 ft 4 kts 282°
2026-05-06 18:43 57.67461 12.29263 515 ft 0 kts 267°
2026-05-06 18:44 57.67460 12.29245 515 ft 5 kts 267°
2026-05-06 18:44 57.67452 12.29118 514 ft 10 kts 254°
2026-05-06 18:45 57.67424 12.29024 515 ft 8 kts 223°
2026-05-06 18:45 57.67401 12.28999 515 ft 0 kts 205°
2026-05-06 18:46 57.67399 12.28997 515 ft 2 kts 205°
2026-05-06 18:46 57.67226 12.28841 514 ft 67 kts 206°
2026-05-06 18:46 57.66586 12.28255 512 ft 135 kts 206°
2026-05-06 18:46 57.65612 12.27360 747 ft 163 kts 210°
2026-05-06 18:47 57.64593 12.26432 1459 ft 163 kts 208°
2026-05-06 18:47 57.63571 12.25507 2175 ft 164 kts 208°
2026-05-06 18:47 57.62544 12.24580 2855 ft 164 kts 207°
2026-05-06 18:47 57.61507 12.23644 3469 ft 172 kts 207°
2026-05-06 18:48 57.60362 12.22609 3818 ft 194 kts 206°
2026-05-06 18:48 57.59069 12.21444 4159 ft 219 kts 206°
2026-05-06 18:48 57.57666 12.19978 4624 ft 245 kts 220°
2026-05-06 18:48 57.56678 12.17304 5368 ft 260 kts 250°
2026-05-06 18:49 57.56283 12.13961 6338 ft 266 kts 257°
2026-05-06 18:49 57.55938 12.10570 7299 ft 269 kts 257°
2026-05-06 18:49 57.55585 12.07127 8312 ft 271 kts 257°
2026-05-06 18:49 57.55224 12.03669 9297 ft 275 kts 258°
2026-05-06 18:50 57.54856 12.00153 10189 ft 280 kts 258°
2026-05-06 18:50 57.54467 11.96453 10588 ft 303 kts 259°
2026-05-06 18:50 57.54110 11.92447 10937 ft 324 kts 265°
2026-05-06 18:50 57.54143 11.88257 11648 ft 332 kts 276°
2026-05-06 18:51 57.54410 11.83913 12483 ft 335 kts 276°
2026-05-06 18:51 57.54665 11.79634 13298 ft 338 kts 276°
2026-05-06 18:51 57.54922 11.75265 14083 ft 342 kts 276°
2026-05-06 18:51 57.55181 11.70842 14822 ft 344 kts 276°
2026-05-06 18:52 57.55437 11.66400 15578 ft 347 kts 276°
2026-05-06 18:52 57.55696 11.61903 16334 ft 349 kts 275°
2026-05-06 18:52 57.55953 11.57402 17088 ft 351 kts 275°
2026-05-06 18:52 57.56213 11.52877 17830 ft 353 kts 275°
2026-05-06 18:53 57.56473 11.48314 18522 ft 356 kts 275°
2026-05-06 18:53 57.56735 11.43723 19164 ft 358 kts 275°
2026-05-06 18:53 57.56997 11.39096 19809 ft 360 kts 275°
2026-05-06 18:53 57.57259 11.34452 20463 ft 362 kts 274°
2026-05-06 18:54 57.57520 11.29767 21109 ft 364 kts 274°
2026-05-06 18:54 57.57781 11.25068 21733 ft 366 kts 274°
2026-05-06 18:54 57.58037 11.20329 22339 ft 368 kts 274°
2026-05-06 18:54 57.58294 11.15572 22929 ft 371 kts 273°
2026-05-06 18:55 57.58555 11.10774 23506 ft 373 kts 273°
2026-05-06 18:55 57.59015 11.05997 23970 ft 378 kts 282°
2026-05-06 18:55 57.59898 11.01335 24425 ft 383 kts 287°
2026-05-06 18:55 57.60852 10.96691 24884 ft 385 kts 287°
2026-05-06 18:56 57.61805 10.92016 25333 ft 387 kts 286°
2026-05-06 18:56 57.62759 10.87303 25799 ft 389 kts 286°
2026-05-06 18:56 57.63715 10.82574 26242 ft 391 kts 286°
2026-05-06 18:56 57.64678 10.77805 26685 ft 393 kts 285°
2026-05-06 18:57 57.65643 10.73018 27113 ft 395 kts 285°
2026-05-06 18:57 57.66599 10.68258 27536 ft 398 kts 285°
2026-05-06 18:57 57.67567 10.63411 27954 ft 400 kts 285°
2026-05-06 18:57 57.68539 10.58524 28368 ft 402 kts 285°
2026-05-06 18:58 57.69531 10.53552 28755 ft 404 kts 284°
2026-05-06 18:58 57.70502 10.48671 29144 ft 407 kts 284°
2026-05-06 18:58 57.71486 10.43707 29519 ft 409 kts 284°
2026-05-06 18:58 57.72478 10.38701 29894 ft 411 kts 284°
2026-05-06 18:59 57.73472 10.33681 30241 ft 413 kts 284°
2026-05-06 18:59 57.74471 10.28618 30545 ft 415 kts 284°
2026-05-06 18:59 57.75471 10.23539 30824 ft 417 kts 284°
2026-05-06 18:59 57.76473 10.18436 31234 ft 416 kts 284°
2026-05-06 19:00 57.77468 10.13353 31639 ft 415 kts 284°
2026-05-06 19:00 57.78456 10.08282 32056 ft 414 kts 284°
2026-05-06 19:00 57.79439 10.03204 32467 ft 413 kts 284°
2026-05-06 19:00 57.80098 9.99789 32744 ft 413 kts 284°
2026-05-06 19:01 57.81395 9.93068 33348 ft 412 kts 284°
2026-05-06 19:01 57.82365 9.88026 33813 ft 410 kts 284°
2026-05-06 19:01 57.83327 9.83008 34196 ft 409 kts 284°
2026-05-06 19:01 57.84288 9.77985 34496 ft 409 kts 284°
2026-05-06 19:02 57.85248 9.72972 34789 ft 410 kts 284°
2026-05-06 19:02 57.86215 9.67929 35053 ft 411 kts 285°
2026-05-06 19:02 57.87182 9.62858 35307 ft 412 kts 285°
2026-05-06 19:02 57.88146 9.57784 35545 ft 413 kts 285°
2026-05-06 19:03 57.89112 9.52681 35783 ft 414 kts 285°
2026-05-06 19:03 57.90075 9.47571 35944 ft 416 kts 285°
2026-05-06 19:03 57.91041 9.42441 35985 ft 415 kts 285°
2026-05-06 19:04 57.92959 9.32197 35989 ft 415 kts 285°
2026-05-06 19:04 57.94872 9.21963 35986 ft 415 kts 285°
2026-05-06 19:05 57.96777 9.11704 35977 ft 415 kts 285°
2026-05-06 19:05 57.98675 9.01439 35983 ft 415 kts 285°
2026-05-06 19:06 58.00562 8.91163 35982 ft 415 kts 285°
2026-05-06 19:06 58.02438 8.80878 35982 ft 415 kts 285°
2026-05-06 19:07 58.04287 8.70654 35979 ft 414 kts 285°
2026-05-06 19:07 58.06144 8.60354 36001 ft 414 kts 285°
2026-05-06 19:08 58.07993 8.50039 35991 ft 415 kts 285°
2026-05-06 19:08 58.09550 8.41388 35981 ft 414 kts 285°
2026-05-06 19:09 58.11393 8.31061 35978 ft 414 kts 285°
2026-05-06 19:09 58.13206 8.20791 35974 ft 414 kts 284°
2026-05-06 19:10 58.15020 8.10438 35975 ft 415 kts 284°
2026-05-06 19:10 58.16829 8.00066 35992 ft 415 kts 285°
2026-05-06 19:11 58.18632 7.89699 35988 ft 414 kts 284°
2026-05-06 19:11 58.20423 7.79316 35989 ft 414 kts 284°
2026-05-06 19:12 58.22216 7.68926 35990 ft 414 kts 284°
2026-05-06 19:12 58.24007 7.58454 35850 ft 415 kts 284°
2026-05-06 19:12 58.24929 7.53272 35436 ft 416 kts 288°
2026-05-06 19:13 58.26400 7.48509 34445 ft 434 kts 304°
2026-05-06 19:13 58.28350 7.44456 33456 ft 438 kts 307°
2026-05-06 19:13 58.30492 7.40138 32431 ft 438 kts 308°
2026-05-06 19:13 58.32550 7.35998 31517 ft 434 kts 308°
2026-05-06 19:14 58.34631 7.31787 30613 ft 429 kts 307°
2026-05-06 19:14 58.36631 7.27711 29702 ft 425 kts 307°
2026-05-06 19:14 58.38633 7.23608 28687 ft 420 kts 307°
2026-05-06 19:14 58.40608 7.19537 27726 ft 415 kts 307°
2026-05-06 19:15 58.42553 7.15515 26785 ft 410 kts 307°
2026-05-06 19:15 58.44471 7.11540 25876 ft 405 kts 307°
2026-05-06 19:15 58.46375 7.07594 24992 ft 401 kts 308°
2026-05-06 19:15 58.48257 7.03696 24139 ft 398 kts 308°
2026-05-06 19:16 58.50126 6.99825 23365 ft 392 kts 308°
2026-05-06 19:16 58.51952 6.96036 22662 ft 383 kts 308°
2026-05-06 19:16 58.53740 6.92316 21979 ft 378 kts 308°
2026-05-06 19:16 58.55517 6.88604 21308 ft 377 kts 308°
2026-05-06 19:17 58.57282 6.84908 20652 ft 375 kts 308°
2026-05-06 19:17 58.59038 6.81228 20010 ft 374 kts 308°
2026-05-06 19:17 58.60794 6.77549 19381 ft 373 kts 308°
2026-05-06 19:17 58.62542 6.73876 18760 ft 371 kts 308°
2026-05-06 19:18 58.64276 6.70223 18245 ft 369 kts 309°
2026-05-06 19:18 58.65989 6.66616 17755 ft 363 kts 309°
2026-05-06 19:18 58.67680 6.63051 17270 ft 358 kts 309°
2026-05-06 19:18 58.69343 6.59545 16805 ft 353 kts 309°
2026-05-06 19:19 58.70985 6.56077 16338 ft 348 kts 309°
2026-05-06 19:19 58.72598 6.52661 16052 ft 340 kts 309°
2026-05-06 19:19 58.74185 6.49297 15453 ft 341 kts 309°
2026-05-06 19:19 58.75768 6.45928 14901 ft 339 kts 310°
2026-05-06 19:20 58.77553 6.42948 14383 ft 339 kts 318°
2026-05-06 19:20 58.79402 6.40161 13903 ft 337 kts 318°
2026-05-06 19:20 58.81242 6.37386 13346 ft 334 kts 318°
2026-05-06 19:20 58.83043 6.34593 12804 ft 330 kts 315°
2026-05-06 19:21 58.84571 6.31330 12270 ft 326 kts 308°
2026-05-06 19:21 58.86044 6.28013 11750 ft 324 kts 308°
2026-05-06 19:21 58.87508 6.24719 11232 ft 322 kts 309°
2026-05-06 19:21 58.88959 6.21444 10738 ft 320 kts 309°
2026-05-06 19:22 58.90401 6.18180 10234 ft 318 kts 309°
2026-05-06 19:22 58.91827 6.14936 9707 ft 315 kts 309°
2026-05-06 19:22 58.93243 6.11706 9164 ft 314 kts 310°
2026-05-06 19:22 58.94651 6.08486 8723 ft 312 kts 310°
2026-05-06 19:23 58.96050 6.05290 8376 ft 310 kts 310°
2026-05-06 19:23 58.97447 6.02100 8101 ft 310 kts 310°
2026-05-06 19:23 58.98842 5.98913 7834 ft 309 kts 310°
2026-05-06 19:23 59.00228 5.95739 7574 ft 308 kts 310°
2026-05-06 19:24 59.01593 5.92608 7317 ft 307 kts 310°
2026-05-06 19:24 59.02968 5.89451 7061 ft 306 kts 311°
2026-05-06 19:24 59.04338 5.86292 6801 ft 305 kts 311°
2026-05-06 19:24 59.05699 5.83150 6552 ft 304 kts 311°
2026-05-06 19:25 59.07041 5.80045 6279 ft 293 kts 310°
2026-05-06 19:25 59.08135 5.76796 6014 ft 282 kts 303°
2026-05-06 19:25 59.09268 5.73770 5746 ft 271 kts 309°
2026-05-06 19:25 59.10401 5.70903 5439 ft 264 kts 309°
2026-05-06 19:26 59.11371 5.67927 5105 ft 260 kts 296°
2026-05-06 19:26 59.12240 5.64908 4823 ft 252 kts 312°
2026-05-06 19:26 59.13479 5.62526 4642 ft 249 kts 319°
2026-05-06 19:26 59.14693 5.60248 4495 ft 236 kts 317°
2026-05-06 19:27 59.15823 5.58043 4365 ft 224 kts 317°
2026-05-06 19:27 59.16892 5.55943 4230 ft 213 kts 316°
2026-05-06 19:27 59.17913 5.53932 4102 ft 205 kts 317°
2026-05-06 19:27 59.18897 5.51998 3984 ft 196 kts 317°
2026-05-06 19:28 59.19830 5.50153 3867 ft 188 kts 317°
2026-05-06 19:28 59.20728 5.48370 3677 ft 181 kts 316°
2026-05-06 19:28 59.21601 5.46637 3437 ft 177 kts 316°
2026-05-06 19:28 59.22454 5.44939 3210 ft 173 kts 316°
2026-05-06 19:29 59.23292 5.43277 2982 ft 171 kts 317°
2026-05-06 19:29 59.24119 5.41647 2746 ft 165 kts 317°
2026-05-06 19:29 59.24887 5.40113 2547 ft 152 kts 317°
2026-05-06 19:29 59.25597 5.38691 2359 ft 138 kts 317°